Regional Weather Roundup
Issued by NWS Upton, NY

Current Version | Previous Version | Text Only | Print | Product List | Glossary Off
Versions: 1 2 3 4 5 6 7 8 9 10 11 12 13 14 15 16 17 18 19 20 21 22 23 24 25 26 27
000 ASUS41 KOKX 242109 RWROKX REGIONAL WEATHER ROUNDUP NATIONAL WEATHER SERVICE NEW YORK NY 500 PM EDT SAT JUN 24 2017 NOTE: "FAIR" INDICATES FEW OR NO CLOUDS BELOW 12,000 FEET WITH NO SIGNIFICANT WEATHER AND/OR OBSTRUCTIONS TO VISIBILITY. NYZ071-072-176-178-NJZ106-104-242200- NEW YORK CITY METRO AREA CITY SKY/WX TMP DP RH WIND PRES REMARKS Central Park CLOUDY 82 53 36 VRB3 29.82R Bronx Bot Gard N/A 82 52 34 W13 29.80S LaGuardia APRT PTSUNNY 85 53 33 NW21G26 29.77R Kennedy INTL PTSUNNY 86 56 35 NW16 29.79R Breezy Point N/A 81 N/A N/A W9 N/A Newark/Liberty CLOUDY 85 51 31 NW13 29.79R Teterboro CLOUDY 83 54 36 NW13 29.78R $$ NYZ177-179-078>081-242200- LONG ISLAND NEW YORK CITY SKY/WX TMP DP RH WIND PRES REMARKS Jones Beach N/A 81 N/A N/A NW15G23 N/A Matinecock PT NOT AVBL Farmingdale NOT AVBL MacArthur/ISP PTSUNNY 85 55 35 W18G25 29.76R Shirley SUNNY 85 58 39 W15G25 29.77R Mt Sinai Harb N/A 81 N/A N/A W8G16 N/A Westhampton SUNNY 86 53 32 W16G25 29.76R East Hampton FAIR 82 59 45 W12G17 29.73R Montauk N/A 83 63 50 W8 29.74R $$ NYZ052-065-067-242200- HUDSON VALLEY CITY SKY/WX TMP DP RH WIND PRES REMARKS White Plains NOT AVBL Larchmont Harb N/A 81 N/A N/A W13 N/A Croton O-T Hud N/A 81 N/A N/A W14 N/A Newburgh MOSUNNY 82 55 39 NW12G23 29.80R Montgomery MOSUNNY 84 52 33 NW8 29.78R Poughkeepsie CLOUDY 84 51 31 NW15G21 29.76R Albany MOSUNNY 81 53 37 NW13G21 29.76R $$ NJZ001-105-106-008-010-013-015-019>022-104-242200- NEW JERSEY CITY SKY/WX TMP DP RH WIND PRES REMARKS Newark/Liberty CLOUDY 85 51 31 NW13 29.79R Teterboro CLOUDY 83 54 36 NW13 29.78R Caldwell CLOUDY 86 54 33 W8G16 29.80R Somerville CLOUDY 84 62 47 VRB5 29.79R Linden FAIR 84 53 34 NW13 29.79S Perth Amboy N/A 82 N/A N/A W14 N/A Sussex SUNNY 83 53 35 VRB6 29.80S Andover N/A 83 55 38 VRB7 29.82R Trenton PTSUNNY 85 59 41 W12 29.82R Millville MOSUNNY 85 63 47 W14 29.85R Atlantic City MOSUNNY 87 60 40 W16G25 29.84R Wrightstown MOSUNNY 84 60 43 W13G22 29.80R Toms River MOSUNNY 88 60 38 W13G21 29.83R Belmar MOSUNNY 83 60 45 W10 29.82R $$ PAZ047>061-062-071-242200- EASTERN PENNSYLVANIA CITY SKY/WX TMP DP RH WIND PRES REMARKS Philadelphia PTSUNNY 86 56 35 W17 29.84R Allentown SUNNY 84 58 40 W13G20 29.82S Scranton MOSUNNY 81 56 42 SW10 29.82R $$ CTZ002-004>006-009-010-012-RIZ004-006-007-MAZ004-011-015-242200- SOUTHERN NEW ENGLAND IN CT CITY SKY/WX TMP DP RH WIND PRES REMARKS Bradley INTL PTSUNNY 82 53 36 W16 29.74R Hartford PTSUNNY 83 54 36 NW9G17 29.73R Danbury PTSUNNY 82 53 36 W10 29.79R Wtrbury/Oxford MOSUNNY 61 54 77 NW8G18 29.81R Bridgeport MOSUNNY 88 55 32 W12G20 29.75R Meriden MOSUNNY 83 54 36 NW10 29.74R New Haven MOSUNNY 84 55 37 NW9 29.74R Chester FAIR 82 55 39 NW14G20 29.75R Groton SUNNY 85 54 34 NW15G26 29.71R Wilimantic SUNNY 84 55 36 NW9 29.73R IN RI CITY SKY/WX TMP DP RH WIND PRES REMARKS Providence MOSUNNY 86 58 38 NW12G17 29.69R Block Island SUNNY 77 61 57 W13G21 29.72R Westerly SUNNY 86 57 37 NW9G21 29.72R IN MA CITY SKY/WX TMP DP RH WIND PRES REMARKS Boston MOSUNNY 87 55 33 W21G30 29.64R Worcester MOSUNNY 80 56 43 W15 29.73R Westfield PTSUNNY 84 54 35 W13G25 29.73R Provincetown MOSUNNY 82 71 69 W8 29.65R Nantucket SUNNY 73 66 78 W22G30 29.68R $$ ANZ330-335-338-340-345-350-353-355-242200- COASTAL MARINE OBSERVATIONS STATION/POSITION TIME SKY/WX TEMP WIND PRES VSBY WAVE AIR SEA DIR/SP/G HT/PER (UTC) (F) (DEG/KT/KT) (MB) (MI) (FT/S) NY HARB ENTRANCE 1950 73 67 280/ 12/ 14 1007.9 4/ 9 20 S FIRE ISLAND 2050 73 68 270/ 12/ 14 1008.1 7/ 8 GREAT SOUTH BAY 2030 81 76 300/ 14/ 19 N/A 23 SSW MONTAUK P 1950 68 64 1006.6 8/ 8 15 E BARNEGAT LI 2030 63 N/A 6/ 8 HUDSON CANYON 1950 71 68 240/ 16/ 17 1008.4 9/ 9 KINGS POINT 2030 78 67 350/ 16/ 23 1008.2 EXECUTION ROCKS 2045 80 290/ 14/ 21 N/A CENTRAL LI SOUND 2045 79 290/ 14/ 16 N/A 1 EASTERN LI SOUND NOT AVBL ROBBINS REEF 2024 300/ 20/ 23 1009.0 $$ >>>>>>>>>>>>>>>>>>>>>>>>>>>> KEY <<<<<<<<<<<<<<<<<<<<<<<<<<< > < > SKY/WX - Sky Condition/Present Weather < > TMP - Temperature in Fahrenheit < > DP - Dew Point in Fahrenheit < > RH - Relative Humidity in Percent < > WIND - Direction (from) and Speed in MPH < > PRES - Mean Sea Level Pressure (inches of Hg) < > WCI - Wind Chill Index < > VSB - VISIBILITY IN MILES < > HX - HEAT INDEX < > TC - TEMPERATURE IN CELSIUS < > VRB - VARIABLE WIND DIRECTION < > < >>>>>>>>>>>>>>>>>>>>>>>>>>>> KEY <<<<<<<<<<<<<<<<<<<<<<<<<<<

USA.gov is the U.S. government's official web portal to all federal, state and local government web resources and services.